Regional Weather Roundup
Issued by NWS

Home | Current Version | Previous Version | Text Only | Print | Product List | Glossary Off
Versions: 1 2 3 4 5 6 7 8 9 10 11 12 13 14 15 16 17 18 19 20 21 22 23 24 25 26 27 28 29 30 31 32 33 34 35 36 37 38 39 40 41 42 43 44 45 46 47 48 49 50

000
ASUS43 KFSD 181110
RWRSD

WEATHER ROUNDUP FOR SOUTH DAKOTA
NATIONAL WEATHER SERVICE SIOUX FALLS SD
600 AM CDT WED OCT 18 2017

NOTE: "FAIR" INDICATES FEW OR NO CLOUDS BELOW 12,000 FEET WITH NO
SIGNIFICANT WEATHER AND/OR OBSTRUCTIONS TO VISIBILITY.


SDZ001>005-009-010-012>017-181200-
NORTHWEST AND NORTH CENTRAL SOUTH DAKOTA

CITY           SKY/WX    TMP DP  RH WIND       PRES   REMARKS
BUFFALO          N/A     52  28  39 NW24      29.82R
FAITH            N/A     60  23  24 NW18      29.80R
MOBRIDGE         N/A     53  36  52 N10       29.72R
$$

SDZ012>016-024>037-041>051-057-063-072>074-181200-
SOUTHWEST AND SOUTH CENTRAL SOUTH DAKOTA

CITY           SKY/WX    TMP DP  RH WIND       PRES   REMARKS
RAPID CTY ARPT CLOUDY    60  22  23 N12       29.85R
PIERRE         PTCLDY    43  32  65 W5        29.74R
CUSTER         CLOUDY    55  12  18 CALM      29.96R
ELLSWORTH AFB  CLOUDY    66  20  17 N22G31    29.82R
PHILIP         PTCLDY    47  31  53 W8        29.80R
PINE RIDGE     PTCLDY    47  28  47 SW7       29.88R
SPEARFISH      FAIR      63  19  19 NW20G28   29.92R
WINNER         FAIR      57  30  35 SW10      29.75R
$$

SDZ004>011-016>023-039-040-181200-
NORTHEAST SOUTH DAKOTA

CITY           SKY/WX    TMP DP  RH WIND       PRES   REMARKS
ABERDEEN       CLOUDY    45  40  82 S10       29.68S
WATERTOWN      CLOUDY    46  43  89 S14       29.72F
BROOKINGS      CLOUDY    48  42  80 S8        29.78S
SISSETON         N/A     58  41  53 S12       29.66R
$$

SDZ017-020-022-023-036>040-048>070-181200-
SOUTHEAST SOUTH DAKOTA

CITY           SKY/WX    TMP DP  RH WIND       PRES   REMARKS
SIOUX FALLS    PTCLDY    54  46  74 S10       29.78F
HURON          CLOUDY    48  40  73 S7        29.71S
CHAMBERLAIN    CLOUDY    42  37  82 CALM      29.74R
MITCHELL       PTCLDY    46  39  76 SE5       29.75S
YANKTON        CLEAR     51  43  74 E3        29.80R
$$

ABBREVIATIONS USED IN REMARKS
   TC - TEMPERATURE IN CELSIUS
  WCI - WIND CHILL INDEX
   HX - HEAT INDEX
  VSB - VISIBILITY





USA.gov is the U.S. government's official web portal to all federal, state and local government web resources and services.